User: anonymous   Login
Location: Koussan�
(15.2012°N, 12.5548°W)
Time: 11:43:46
(UTC+00:00)
Language:

EO 1 Delta rocket - Orbit

View from above orbital plane
View from above orbital plane
View from above satellite
View from above satellite

Ground track
Ground track

The orbit data is extracted from the following two-line orbital elements,

1 26622U 00075D   21023.18785006  .00000266  00000-0  25485-3 0  9994
2 26622  95.4085 187.5947 0716595 283.7248 257.8266 13.04451024960239
Epoch (UTC): 23 January 2021 04:30:30
Eccentricity: 0.0716595
inclination: 95.4085°
perigee height: 698 km
apogee height: 1791 km
right ascension of ascending node: 187.5947°
argument of perigee: 283.7248°
revolutions per day: 13.04451024
mean anomaly at epoch: 257.8266°
orbit number at epoch: 96023

The dashed part of the orbit path shows where the satellite is in the earth's shadow,  

DLR